Location: Carlingford
(46.7848°N, 67.7474°W)
Time: 12:08:34
(UTC+00:00)

N. Korean satellite - Pass Details

Date: 03 December 2022
Orbit: 407 x 441 km, 97.3° (Epoch: 05 February)

Event Time Altitude Azimuth Distance (km) Brightness Sun altitude
Rises 10:15:13 0° 7° (N) 2,527 10.1 -16.8°
Reaches altitude 10° 10:17:20 10° 2° (N) 1,641 9.1 -16.5°
Maximum altitude 10:20:45 49° 287° (WNW) 608 6.6 -15.9°
Drops below altitude 10° 10:24:06 10° 211° (SSW) 1,607 9.0 -15.4°
Sets 10:26:09 0° 206° (SSW) 2,467 10.1 -15.0°
